TimeMDT,TemperatureF,Dew PointF,Humidity,Sea Level PressureIn,VisibilityMPH,Wind Direction,Wind SpeedMPH,Gust SpeedMPH,PrecipitationIn,Events,Conditions,WindDirDegrees,DateUTC
12:53 AM,41.0,28.9,62,29.90,10.0,Calm,Calm,-,N/A,,Clear,0,2012-10-11 06:53:00
1:53 AM,39.9,28.0,63,29.89,10.0,Calm,Calm,-,N/A,,Clear,0,2012-10-11 07:53:00
2:53 AM,39.9,28.9,65,29.90,10.0,Calm,Calm,-,N/A,,Clear,0,2012-10-11 08:53:00
3:53 AM,37.0,28.0,70,29.89,10.0,Calm,Calm,-,N/A,,Clear,0,2012-10-11 09:53:00
4:53 AM,37.0,28.9,73,29.89,10.0,Calm,Calm,-,N/A,,Clear,0,2012-10-11 10:53:00
5:53 AM,36.0,28.9,76,29.91,10.0,Calm,Calm,-,N/A,,Clear,0,2012-10-11 11:53:00
6:53 AM,36.0,28.9,76,29.94,10.0,Calm,Calm,-,N/A,,Clear,0,2012-10-11 12:53:00
7:53 AM,37.0,28.0,70,29.96,10.0,Calm,Calm,-,N/A,,Clear,0,2012-10-11 13:53:00
8:53 AM,42.1,33.1,70,29.97,8.0,ESE,3.5,-,N/A,,Clear,110,2012-10-11 14:53:00
9:53 AM,48.0,35.1,61,29.98,10.0,Calm,Calm,-,N/A,,Clear,0,2012-10-11 15:53:00
10:53 AM,57.0,34.0,42,29.96,10.0,NE,3.5,-,N/A,,Clear,40,2012-10-11 16:53:00
11:53 AM,63.0,35.1,35,29.95,10.0,East,4.6,-,N/A,,Clear,90,2012-10-11 17:53:00
12:53 PM,68.0,35.1,30,29.92,10.0,Calm,Calm,-,N/A,,Clear,0,2012-10-11 18:53:00
1:53 PM,71.1,34.0,26,29.88,10.0,NNE,5.8,-,N/A,,Clear,20,2012-10-11 19:53:00
2:53 PM,73.0,33.1,23,29.85,10.0,Variable,4.6,-,N/A,,Clear,0,2012-10-11 20:53:00
5:53 PM,73.0,35.1,25,29.81,10.0,ENE,5.8,-,N/A,,Clear,60,2012-10-11 23:53:00
6:53 PM,64.9,37.0,36,29.82,10.0,NNE,3.5,-,N/A,,Clear,30,2012-10-12 00:53:00
7:53 PM,55.0,37.9,53,29.85,10.0,Calm,Calm,-,N/A,,Mostly Cloudy,0,2012-10-12 01:53:00
8:53 PM,54.0,41.0,62,29.86,10.0,ESE,3.5,-,N/A,,Partly Cloudy,120,2012-10-12 02:53:00
10:53 PM,51.1,35.1,54,29.83,10.0,WSW,3.5,-,N/A,,Clear,250,2012-10-12 04:53:00
11:53 PM,48.9,37.0,64,29.83,10.0,Calm,Calm,-,N/A,,Clear,0,2012-10-12 05:53:00